period_start,C,m1,H,J0,J1,J2,J3,J4,J5,JA,JB,JC,JD,JJ,JK,JN,#
2017-09-02 00:00:06,0.09,0.85,0.00,25.94,29.45,31.77,13.44,43.60,999.53,2025.00,3204.93,2836.50,3239.62,600.22,580.49,37.58,0000 0000 0000 0000 000000
2017-09-02 00:05:07,0.08,0.85,0.00,25.95,29.45,31.77,13.50,43.72,999.53,2025.00,3203.04,2835.28,3238.12,599.96,580.19,37.63,0000 0000 0000 0000 000000
2017-09-02 00:10:09,0.08,0.86,0.00,25.97,29.46,31.78,13.50,43.67,999.53,2024.99,3201.12,2834.06,3236.57,599.99,580.21,37.68,0000 0000 0000 0000 000000
2017-09-02 00:15:10,0.09,0.86,0.00,25.99,29.47,31.77,13.62,43.73,999.53,2024.99,3199.26,2832.74,3235.10,600.20,580.31,37.73,0000 0000 0000 0000 000000
2017-09-02 00:20:11,0.09,0.86,0.00,26.02,29.47,31.80,13.51,43.73,999.53,2024.99,3197.64,2831.58,3233.70,599.80,579.98,37.78,0000 0000 0000 0000 000000
2017-09-02 00:25:13,0.08,0.87,0.00,26.06,29.50,31.80,13.50,43.67,999.53,2024.98,3195.90,2830.39,3232.33,600.17,580.19,37.84,0000 0000 0000 0000 000000
2017-09-02 00:30:14,0.08,0.87,0.00,26.08,29.50,31.80,13.49,43.59,999.53,2024.98,3194.15,2829.24,3230.93,599.94,579.93,37.89,0000 0000 0000 0000 000000
2017-09-02 00:35:15,0.08,0.88,0.00,26.12,29.52,31.82,13.46,43.71,999.53,2024.96,3192.49,2828.04,3229.58,600.04,579.86,37.94,0000 0000 0000 0000 000000
2017-09-02 00:40:16,0.08,0.88,0.00,26.12,29.54,31.84,13.43,43.53,999.53,2024.89,3190.72,2826.83,3228.07,599.90,579.74,37.99,0000 0000 0000 0000 000000
2017-09-02 00:45:17,0.05,0.88,0.00,26.13,29.55,31.85,13.45,43.61,999.53,2024.58,3188.89,2825.66,3226.67,600.15,580.04,38.04,0000 0000 0000 0000 000000
2017-09-02 00:50:19,0.05,0.89,0.00,26.15,29.57,31.87,13.50,43.63,999.53,2024.28,3187.15,2824.48,3225.27,600.23,579.99,38.09,0000 0000 0000 0000 000000
2017-09-02 00:55:20,0.06,0.89,0.00,26.18,29.59,31.89,13.45,43.68,999.53,2024.07,3185.69,2823.34,3223.99,599.84,579.63,38.14,0000 0000 0000 0000 000000
2017-09-02 01:00:21,0.08,0.89,0.00,26.22,29.60,31.90,13.46,43.69,999.53,2024.02,3184.03,2822.22,3222.68,599.70,579.41,38.19,0000 0000 0000 0000 000000
2017-09-02 01:05:23,0.06,0.90,0.00,26.22,29.62,31.92,13.50,43.75,999.53,2024.00,3182.64,2821.14,3221.47,600.03,579.73,38.24,0000 0000 0000 0000 000000
2017-09-02 01:10:24,0.06,0.90,0.00,26.25,29.64,31.95,13.54,43.76,999.53,2024.00,3181.19,2820.20,3220.32,600.20,579.88,38.29,0000 0000 0000 0000 000000
2017-09-02 01:15:25,0.07,0.91,0.00,26.25,29.65,31.96,13.50,43.71,999.53,2024.00,3179.72,2819.20,3219.13,600.03,579.73,38.34,0000 0000 0000 0000 000000
2017-09-02 01:20:27,0.06,0.91,0.00,26.29,29.67,31.98,13.49,43.75,999.53,2023.99,3178.36,2818.28,3218.03,600.17,579.64,38.39,0000 0000 0000 0000 000000
2017-09-02 01:25:28,0.06,0.91,0.00,26.31,29.69,31.99,13.48,43.79,999.53,2023.98,3176.98,2817.36,3216.93,600.05,579.55,38.44,0000 0000 0000 0000 000000
2017-09-02 01:30:29,0.07,0.92,0.00,26.33,29.70,32.01,13.48,43.77,999.53,2023.96,3175.54,2816.45,3215.80,600.14,579.64,38.49,0000 0000 0000 0000 000000
2017-09-02 01:35:31,0.05,0.92,0.00,26.34,29.72,32.02,13.46,43.76,999.53,2023.90,3174.39,2815.64,3214.74,599.97,579.54,38.54,0000 0000 0000 0000 000000
2017-09-02 01:40:32,0.03,0.92,0.00,26.37,29.74,32.05,13.42,43.71,999.53,2023.74,3173.06,2814.88,3213.81,599.85,579.20,38.59,0000 0000 0000 0000 000000
2017-09-02 01:45:33,0.01,0.92,0.00,26.40,29.76,32.06,13.48,43.64,999.54,2023.24,3171.77,2814.00,3212.73,599.96,579.36,38.64,0000 0000 0000 0000 000000
2017-09-02 01:50:35,0.05,0.92,0.00,26.42,29.77,32.08,13.50,43.73,999.53,2023.12,3170.65,2813.13,3211.82,600.13,579.48,38.69,0000 0000 0000 0000 000000
2017-09-02 01:55:36,0.09,0.93,0.00,26.45,29.78,32.09,13.48,43.67,999.53,2023.04,3169.30,2811.79,3210.73,600.26,579.59,38.74,0000 0000 0000 0000 000000
2017-09-02 02:00:37,0.07,0.93,0.00,26.47,29.81,32.11,13.55,43.73,999.53,2023.00,3168.07,2809.86,3209.74,600.35,579.49,38.80,0000 0000 0000 0000 000000
2017-09-02 02:05:38,0.06,0.94,0.00,26.49,29.82,32.14,13.51,43.70,999.54,2023.00,3166.70,2808.96,3208.67,600.06,579.28,38.85,0000 0000 0000 0000 000000
2017-09-02 02:10:39,0.06,0.94,0.00,26.52,29.85,32.16,13.47,43.62,999.53,2023.00,3165.49,2808.09,3207.70,599.88,579.10,38.90,0000 0000 0000 0000 000000
2017-09-02 02:15:40,0.06,0.94,0.00,26.56,29.87,32.18,13.47,43.74,999.53,2023.00,3164.30,2807.24,3206.71,600.22,579.31,38.95,0000 0000 0000 0000 000000
2017-09-02 02:20:41,0.06,0.95,0.00,26.59,29.90,32.20,13.41,43.67,999.53,2022.94,3163.09,2806.25,3205.58,599.87,578.90,39.00,0000 0000 0000 0000 000000
2017-09-02 02:25:43,0.06,0.95,0.00,26.62,29.92,32.23,13.47,43.76,999.53,2022.89,3161.73,2805.43,3204.51,600.32,579.21,39.05,0000 0000 0000 0000 000000
2017-09-02 02:30:44,0.03,0.95,0.00,26.66,29.94,32.24,13.47,43.76,999.53,2022.55,3160.36,2804.50,3203.33,600.08,578.93,39.10,0000 0000 0000 0000 000000
2017-09-02 02:35:45,0.04,0.95,0.00,26.69,29.97,32.27,13.50,43.83,999.53,2022.19,3158.83,2803.48,3202.18,599.88,578.66,39.15,0000 0000 0000 0000 000000
2017-09-02 02:40:46,0.07,0.96,0.00,26.70,29.99,32.30,13.49,43.77,999.53,2022.04,3157.19,2802.36,3200.85,600.01,578.67,39.20,0000 0000 0000 0000 000000
2017-09-02 02:45:47,0.07,0.96,0.00,26.73,30.02,32.32,13.34,43.88,999.53,2022.02,3155.72,2801.43,3199.64,599.61,578.31,39.25,0000 0000 0000 0000 000000
2017-09-02 02:50:49,0.06,0.96,0.00,26.76,30.04,32.35,13.42,43.82,999.53,2022.00,3154.53,2800.42,3198.63,599.92,578.59,39.30,0000 0000 0000 0000 000000
2017-09-02 02:55:50,0.07,0.97,0.00,26.79,30.07,32.38,13.43,43.73,999.53,2021.99,3152.97,2799.44,3197.42,600.13,578.83,39.35,0000 0000 0000 0000 000000
2017-09-02 03:00:52,0.07,0.97,0.00,26.83,30.10,32.40,13.43,43.80,999.53,2021.98,3151.52,2798.39,3196.21,599.91,578.43,39.40,0000 0000 0000 0000 000000
2017-09-02 03:05:53,0.06,0.97,0.00,26.86,30.12,32.42,13.43,43.83,999.52,2021.91,3150.21,2797.37,3195.06,599.54,578.11,39.45,0000 0000 0000 0000 000000
2017-09-02 03:10:54,0.01,0.98,0.00,26.90,30.15,32.46,13.42,43.88,999.53,2021.39,3148.86,2796.44,3193.93,599.82,578.30,39.50,0000 0000 0000 0000 000000
2017-09-02 03:15:55,0.05,0.98,0.00,26.93,30.17,32.48,13.44,43.86,999.52,2021.07,3147.46,2795.51,3192.73,599.85,578.15,39.55,0000 0000 0000 0000 000000
2017-09-02 03:20:57,0.07,0.98,0.00,26.94,30.20,32.51,13.39,43.91,999.53,2021.02,3145.89,2794.43,3191.44,599.78,578.13,39.60,0000 0000 0000 0000 000000
2017-09-02 03:25:58,0.07,0.98,0.00,26.97,30.22,32.53,13.39,43.83,999.53,2021.00,3144.40,2793.50,3190.35,599.83,578.09,39.65,0000 0000 0000 0000 000000
2017-09-02 03:30:59,0.07,0.99,0.00,26.99,30.25,32.56,13.47,43.77,999.53,2021.00,3142.86,2792.54,3189.08,600.06,578.27,39.70,0000 0000 0000 0000 000000
2017-09-02 03:36:00,0.07,0.99,0.00,27.02,30.28,32.58,13.40,43.83,999.53,2021.00,3141.39,2791.54,3187.92,599.84,578.01,39.76,0000 0000 0000 0000 000000
2017-09-02 03:41:01,0.07,1.00,0.00,27.06,30.31,32.61,13.43,43.74,999.53,2020.99,3139.97,2790.50,3186.75,600.06,578.17,39.81,0000 0000 0000 0000 000000
2017-09-02 03:46:03,0.06,1.00,0.00,27.10,30.33,32.64,13.40,43.82,999.53,2020.98,3138.64,2789.63,3185.67,599.89,577.81,39.86,0000 0000 0000 0000 000000
2017-09-02 03:51:04,0.06,1.00,0.00,27.14,30.36,32.67,13.49,43.83,999.53,2020.89,3137.33,2788.67,3184.54,600.21,578.18,39.91,0000 0000 0000 0000 000000
2017-09-02 03:56:06,0.03,1.01,0.00,27.20,30.39,32.69,13.35,43.67,999.53,2020.52,3135.81,2787.66,3183.38,599.84,577.68,39.96,0000 0000 0000 0000 000000
2017-09-02 04:01:07,0.03,1.01,0.00,27.22,30.42,32.72,13.34,43.71,999.53,2020.12,3134.61,2786.69,3182.22,599.71,577.52,40.01,0000 0000 0000 0000 000000
2017-09-02 04:06:08,0.06,1.01,0.00,27.25,30.45,32.75,13.39,43.73,999.53,2020.00,3133.25,2785.71,3181.02,599.59,577.39,40.06,0000 0000 0000 0000 000000
2017-09-02 04:11:09,0.06,1.01,0.00,27.29,30.48,32.78,13.38,43.72,999.54,2020.00,3131.97,2784.82,3179.92,600.01,577.66,40.11,0000 0000 0000 0000 000000
2017-09-02 04:16:10,0.06,1.02,0.00,27.32,30.51,32.81,13.36,43.65,999.54,2020.00,3130.74,2783.93,3178.86,599.53,577.24,40.16,0000 0000 0000 0000 000000
2017-09-02 04:21:11,0.07,1.02,0.00,27.34,30.54,32.84,13.44,43.74,999.54,2019.97,3129.42,2782.98,3177.67,599.88,577.44,40.21,0000 0000 0000 0000 000000
2017-09-02 04:26:13,0.04,1.02,0.00,27.38,30.56,32.87,13.37,43.68,999.55,2019.81,3128.30,2782.05,3176.69,600.20,577.82,40.26,0000 0000 0000 0000 000000
2017-09-02 04:31:14,0.01,1.02,0.00,27.41,30.60,32.90,13.35,43.69,999.57,2019.24,3126.96,2781.14,3175.70,599.80,577.25,40.31,0000 0000 0000 0000 000000
2017-09-02 04:36:15,0.06,1.03,0.00,27.45,30.63,32.93,13.32,43.52,999.56,2019.03,3125.64,2780.25,3174.55,599.45,576.84,40.36,0000 0000 0000 0000 000000
2017-09-02 04:41:15,0.06,1.03,0.00,27.47,30.66,32.96,13.43,43.75,999.60,2019.01,3124.45,2779.45,3173.56,600.08,577.35,40.41,0000 0000 0000 0000 000000
2017-09-02 04:46:17,0.06,1.03,0.00,27.50,30.69,33.00,13.46,43.74,999.61,2019.00,3123.29,2778.52,3172.52,600.06,577.32,40.46,0000 0000 0000 0000 000000
2017-09-02 04:51:18,0.07,1.04,0.00,27.54,30.72,33.02,13.42,43.67,999.62,2018.99,3121.75,2777.60,3171.40,600.03,577.39,40.51,0000 0000 0000 0000 000000
2017-09-02 04:56:19,0.06,1.04,0.00,27.59,30.76,33.05,13.46,43.59,999.76,2018.98,3120.39,2776.71,3170.25,600.33,577.52,40.56,0000 0000 0000 0000 000000
2017-09-02 05:01:20,0.04,1.04,0.00,27.62,30.79,33.08,13.40,43.68,999.78,2018.83,3119.10,2775.80,3169.19,599.82,577.09,40.61,0000 0000 0000 0000 000000
2017-09-02 05:06:22,0.01,1.04,0.00,27.65,30.82,33.12,13.39,43.65,999.94,2018.40,3117.79,2774.85,3168.04,600.21,577.40,40.66,0000 0000 0000 0000 000000
2017-09-02 05:11:23,0.04,1.05,0.00,27.67,30.85,33.15,13.40,43.65,1000.00,2018.05,3116.66,2773.93,3166.96,600.05,577.32,40.72,0000 0000 0000 0000 000000
2017-09-02 05:16:24,0.06,1.05,0.00,27.70,30.88,33.19,13.36,43.52,1000.01,2018.00,3115.26,2772.98,3165.85,599.64,576.81,40.77,0000 0000 0000 0000 000000
2017-09-02 05:21:26,0.08,1.05,0.00,27.72,30.92,33.23,13.41,43.64,1000.01,2018.00,3113.59,2771.98,3164.56,600.09,577.20,40.82,0000 0000 0000 0000 000000
2017-09-02 05:26:27,0.09,1.06,0.00,27.76,30.95,33.25,13.43,43.63,1000.01,2018.00,3111.83,2770.83,3163.21,600.30,577.26,40.87,0000 0000 0000 0000 000000
2017-09-02 05:31:28,0.08,1.06,0.00,27.78,30.98,33.29,13.41,43.67,1000.01,2017.97,3110.21,2769.70,3161.86,600.22,577.20,40.92,0000 0000 0000 0000 000000
2017-09-02 05:36:30,0.07,1.06,0.00,27.81,31.01,33.32,13.38,43.66,1000.01,2017.85,3108.69,2768.64,3160.60,599.55,576.50,40.97,0000 0000 0000 0000 000000
2017-09-02 05:41:31,0.04,1.07,0.00,27.82,31.04,33.34,13.40,43.60,1000.01,2017.48,3107.08,2767.65,3159.33,599.96,576.84,41.02,0000 0000 0000 0000 000000
2017-09-02 05:46:32,0.12,1.07,0.00,27.85,31.08,33.38,13.42,43.66,1000.01,2017.12,3104.25,2765.84,3157.26,600.23,577.10,41.07,0000 0000 0000 0000 000000
2017-09-02 05:51:34,0.07,1.08,0.00,27.86,31.11,33.42,13.40,43.57,1000.01,2017.01,3102.26,2764.51,3155.71,600.06,576.90,41.12,0000 0000 0000 0000 000000
2017-09-02 05:56:35,0.08,1.08,0.00,27.89,31.13,33.43,13.38,43.60,1000.01,2017.00,3100.60,2763.35,3154.38,599.79,576.57,41.17,0000 0000 0000 0000 000000
2017-09-02 06:01:36,0.07,1.09,0.00,27.90,31.16,33.47,13.44,43.66,1000.01,2016.99,3099.11,2762.28,3153.13,599.71,576.50,41.22,0000 0000 0000 0000 000000
2017-09-02 06:06:37,0.06,1.09,0.00,27.93,31.19,33.49,13.40,43.64,1000.01,2016.97,3097.78,2761.38,3152.03,600.07,576.65,41.27,0000 0000 0000 0000 000000
2017-09-02 06:11:38,0.03,1.09,0.00,27.96,31.21,33.52,13.37,43.63,1000.01,2016.67,3096.45,2760.37,3150.82,599.97,576.76,41.32,0000 0000 0000 0000 000000
2017-09-02 06:16:40,0.04,1.09,0.00,27.97,31.24,33.54,13.35,43.55,1000.02,2016.13,3094.93,2759.37,3149.62,600.11,576.83,41.37,0000 0000 0000 0000 000000
2017-09-02 06:21:41,0.07,1.10,0.00,28.00,31.27,33.58,13.46,43.60,1000.02,2016.02,3093.47,2758.35,3148.43,600.40,576.96,41.42,0000 0000 0000 0000 000000
2017-09-02 06:26:42,0.08,1.10,0.00,28.01,31.29,33.59,13.39,43.63,1000.02,2016.00,3091.74,2757.25,3147.14,599.66,576.22,41.47,0000 0000 0000 0000 000000
2017-09-02 06:31:44,0.11,1.10,0.00,28.04,31.31,33.63,13.51,43.58,1000.02,2016.00,3089.52,2755.86,3145.51,600.57,577.05,41.52,0000 0000 0000 0000 000000
2017-09-02 06:36:45,0.10,1.11,0.00,28.04,31.34,33.64,13.42,43.52,1000.02,2016.00,3087.45,2754.58,3143.92,600.16,576.64,41.57,0000 0000 0000 0000 000000
2017-09-02 06:41:46,0.09,1.12,0.00,28.05,31.36,33.67,13.39,43.49,1000.03,2015.98,3085.32,2753.26,3142.40,599.72,576.15,41.62,0000 0000 0000 0000 000000
2017-09-02 06:46:48,0.09,1.12,0.00,28.07,31.38,33.68,13.45,43.52,1000.12,2015.95,3083.37,2752.01,3140.81,600.23,576.66,41.68,0000 0000 0000 0000 000000
2017-09-02 06:51:49,0.07,1.12,0.00,28.09,31.40,33.71,13.43,43.50,1000.30,2015.87,3081.58,2750.97,3139.53,599.99,576.58,41.73,0000 0000 0000 0000 000000
2017-09-02 06:56:50,0.04,1.13,0.00,28.10,31.42,33.73,13.38,43.50,1000.39,2015.37,3079.77,2749.82,3138.12,599.78,576.44,41.78,0000 0000 0000 0000 000000
2017-09-02 07:01:51,0.06,1.13,0.00,28.10,31.44,33.75,13.39,43.54,1000.43,2015.12,3078.11,2748.72,3136.79,599.92,576.54,41.83,0000 0000 0000 0000 000000
2017-09-02 07:06:53,0.08,1.13,0.00,28.12,31.46,33.78,13.39,43.51,1000.48,2015.04,3076.39,2747.62,3135.50,600.13,576.75,41.88,0000 0000 0000 0000 000000
2017-09-02 07:11:54,0.07,1.14,0.00,28.13,31.48,33.79,13.33,43.53,1000.49,2015.01,3074.69,2746.59,3134.43,599.70,576.30,41.93,0000 0000 0000 0000 000000
2017-09-02 07:16:56,0.08,1.14,0.00,28.15,31.50,33.81,13.43,43.52,1000.48,2015.00,3073.09,2745.52,3133.11,600.21,576.84,41.98,0000 0000 0000 0000 000000
2017-09-02 07:21:57,0.08,1.15,0.00,28.16,31.52,33.83,13.39,43.55,1000.50,2015.00,3071.45,2744.38,3131.79,599.80,576.27,42.03,0000 0000 0000 0000 000000
2017-09-02 07:26:58,0.07,1.15,0.00,28.17,31.54,33.85,13.41,43.58,1000.50,2014.98,3069.91,2743.40,3130.51,600.27,576.79,42.08,0000 0000 0000 0000 000000
2017-09-02 07:32:00,0.07,1.15,0.00,28.18,31.56,33.88,13.42,43.50,1000.50,2014.94,3068.42,2742.28,3129.33,600.03,576.53,42.13,0000 0000 0000 0000 000000
2017-09-02 07:37:01,0.04,1.16,0.00,28.18,31.57,33.88,13.41,43.63,1000.50,2014.67,3066.86,2741.27,3128.10,599.99,576.49,42.18,0000 0000 0000 0000 000000
2017-09-02 07:42:02,0.08,1.16,0.00,28.18,31.60,33.90,13.35,43.51,1000.50,2014.53,3065.24,2740.20,3126.87,600.09,576.56,42.23,0000 0000 0000 0000 000000
2017-09-02 07:47:04,0.03,1.16,0.00,28.19,31.61,33.92,13.40,43.56,1000.50,2014.18,3063.74,2739.26,3125.66,600.05,576.57,42.28,0000 0000 0000 0000 000000
2017-09-02 07:52:05,0.07,1.17,0.00,28.20,31.62,33.94,13.40,43.60,1000.52,2014.05,3062.29,2738.23,3124.52,599.99,576.41,42.33,0000 0000 0000 0000 000000
2017-09-02 07:57:07,0.07,1.17,0.00,28.21,31.65,33.94,13.41,43.65,1000.52,2014.02,3060.68,2737.19,3123.28,599.94,576.51,42.38,0000 0000 0000 0000 000000
2017-09-02 08:02:08,0.07,1.17,0.00,28.21,31.65,33.96,13.44,43.59,1000.54,2014.00,3059.30,2736.29,3122.13,600.06,576.57,42.43,0000 0000 0000 0000 000000
2017-09-02 08:07:09,0.07,1.18,0.00,28.23,31.67,33.98,13.45,43.49,1000.69,2014.00,3057.72,2735.28,3121.01,599.95,576.51,42.48,0000 0000 0000 0000 000000
2017-09-02 08:12:10,0.07,1.18,0.00,28.23,31.69,33.99,13.44,43.55,1000.77,2014.00,3056.30,2734.38,3119.93,600.23,576.78,42.53,0000 0000 0000 0000 000000
2017-09-02 08:17:11,0.07,1.19,0.00,28.22,31.70,34.00,13.46,43.48,1000.80,2014.00,3054.92,2733.42,3118.76,600.11,576.71,42.59,0000 0000 0000 0000 000000
2017-09-02 08:22:13,0.07,1.19,0.00,28.23,31.71,34.01,13.39,43.47,1000.96,2014.00,3053.36,2732.40,3117.51,600.08,576.70,42.64,0000 0000 0000 0000 000000
2017-09-02 08:27:15,0.07,1.19,0.00,28.25,31.72,34.03,13.34,43.44,1000.99,2014.00,3051.86,2731.53,3116.48,599.80,576.43,42.69,0000 0000 0000 0000 000000
2017-09-02 08:32:16,0.06,1.20,0.00,28.26,31.74,34.03,13.43,43.58,1000.99,2013.99,3050.56,2730.68,3115.36,600.21,576.84,42.74,0000 0000 0000 0000 000000
2017-09-02 08:37:17,0.08,1.20,0.00,28.26,31.75,34.05,13.44,43.54,1000.99,2013.99,3048.95,2729.65,3114.15,600.02,576.77,42.79,0000 0000 0000 0000 000000
2017-09-02 08:42:18,0.07,1.20,0.00,28.27,31.76,34.06,13.42,43.58,1000.99,2013.99,3047.56,2728.63,3112.94,600.23,576.85,42.84,0000 0000 0000 0000 000000
2017-09-02 08:47:19,0.05,1.21,0.00,28.28,31.77,34.06,13.35,43.52,1000.99,2013.97,3046.25,2727.80,3111.89,599.84,576.44,42.89,0000 0000 0000 0000 000000
2017-09-02 08:52:21,0.06,1.21,0.00,28.28,31.78,34.07,13.45,43.55,1000.99,2013.94,3045.01,2726.97,3110.87,600.26,576.84,42.94,0000 0000 0000 0000 000000
2017-09-02 08:57:22,0.07,1.21,0.00,28.28,31.80,34.09,13.38,43.56,1000.99,2013.93,3043.75,2726.08,3109.89,599.92,576.43,42.99,0000 0000 0000 0000 000000
2017-09-02 09:02:23,0.05,1.22,0.00,28.28,31.80,34.09,13.39,43.57,1000.99,2013.85,3042.48,2725.18,3108.90,599.85,576.49,43.04,0000 0000 0000 0000 000000
2017-09-02 09:07:25,0.06,1.22,0.00,28.29,31.82,34.10,13.46,43.62,1000.99,2013.73,3041.25,2724.34,3107.92,600.21,576.82,43.09,0000 0000 0000 0000 000000
2017-09-02 09:12:26,0.04,1.22,0.00,28.29,31.82,34.11,13.39,43.53,1000.99,2013.56,3039.99,2723.61,3106.93,599.82,576.22,43.14,0000 0000 0000 0000 000000
2017-09-02 09:17:27,0.07,1.22,0.00,28.29,31.83,34.12,13.36,43.53,1001.00,2013.45,3038.70,2722.82,3105.97,599.81,576.47,43.19,0000 0000 0000 0000 000000
2017-09-02 09:22:28,0.05,1.23,0.00,28.29,31.85,34.14,13.40,43.48,1001.00,2013.46,3037.45,2721.96,3104.99,599.90,576.48,43.24,0000 0000 0000 0000 000000
2017-09-02 09:27:30,0.04,1.23,0.00,28.30,31.85,34.14,13.40,43.51,1001.02,2013.23,3036.14,2721.07,3103.90,599.82,576.40,43.29,0000 0000 0000 0000 000000
2017-09-02 09:32:31,0.05,1.23,0.00,28.31,31.87,34.15,13.42,43.51,1001.04,2013.11,3034.90,2720.20,3102.96,600.61,577.19,43.34,0000 0000 0000 0000 000000
2017-09-02 09:37:32,0.06,1.24,0.00,28.31,31.87,34.16,13.42,43.52,1001.13,2013.06,3033.72,2719.46,3102.02,599.97,576.65,43.39,0000 0000 0000 0000 000000
2017-09-02 09:42:33,0.06,1.24,0.00,28.30,31.88,34.16,13.41,43.59,1001.35,2013.01,3032.42,2718.55,3101.00,600.24,576.99,43.44,0000 0000 0000 0000 000000
2017-09-02 09:47:34,0.05,1.24,0.00,28.30,31.89,34.17,13.38,43.51,1001.40,2013.02,3031.30,2717.83,3100.05,599.79,576.55,43.50,0000 0000 0000 0000 000000
2017-09-02 09:52:35,0.06,1.25,0.00,28.31,31.90,34.18,13.37,43.55,1001.45,2013.00,3029.94,2716.96,3099.08,599.98,576.78,43.55,0000 0000 0000 0000 000000
2017-09-02 09:57:37,0.06,1.25,0.00,28.30,31.90,34.18,13.41,43.61,1001.46,2013.00,3028.78,2716.09,3098.08,600.01,576.99,43.60,0000 0000 0000 0000 000000
2017-09-02 10:02:38,0.07,1.25,0.00,28.29,31.91,34.20,13.49,43.72,1001.44,2013.00,3027.55,2715.29,3097.09,600.30,577.12,43.65,0000 0000 0000 0000 000000
2017-09-02 10:07:39,0.06,1.26,0.00,28.30,31.92,34.20,13.37,43.59,1001.45,2013.00,3026.25,2714.42,3096.08,599.79,576.55,43.70,0000 0000 0000 0000 000000
2017-09-02 10:12:40,0.05,1.26,0.00,28.31,31.92,34.20,13.36,43.57,1001.48,2012.99,3025.12,2713.71,3095.15,599.75,576.66,43.75,0000 0000 0000 0000 000000
2017-09-02 10:17:41,0.05,1.26,0.00,28.30,31.92,34.21,13.43,43.71,1001.48,2012.99,3024.10,2713.00,3094.39,600.29,577.20,43.80,0000 0000 0000 0000 000000
2017-09-02 10:22:43,0.06,1.27,0.00,28.29,31.92,34.22,13.43,43.66,1001.48,2012.99,3023.00,2712.17,3093.52,600.04,576.91,43.85,0000 0000 0000 0000 000000
2017-09-02 10:27:44,0.07,1.27,0.00,28.29,31.93,34.21,13.42,43.67,1001.47,2012.99,3021.72,2711.52,3092.58,600.06,576.90,43.90,0000 0000 0000 0000 000000
2017-09-02 10:32:46,0.09,1.27,0.00,28.30,31.94,34.22,13.45,43.66,1001.47,2012.99,3019.95,2710.28,3091.18,600.05,576.91,43.95,0000 0000 0000 0000 000000
2017-09-02 10:37:47,0.14,1.28,0.00,28.29,31.95,34.23,13.40,43.59,1001.48,2012.99,3017.40,2708.49,3089.15,599.74,576.71,44.00,0000 0000 0000 0000 000000
2017-09-02 10:42:48,0.15,1.29,0.00,28.29,31.95,34.22,13.38,43.59,1001.48,2012.99,3014.59,2706.56,3086.86,600.06,576.91,44.05,0000 0000 0000 0000 000000
2017-09-02 10:47:50,0.13,1.29,0.00,28.30,31.95,34.22,13.44,43.73,1001.49,2012.99,3012.03,2704.82,3084.84,600.14,576.99,44.10,0000 0000 0000 0000 000000
2017-09-02 10:52:51,0.13,1.30,0.00,28.28,31.95,34.23,13.41,43.65,1001.49,2012.98,3009.44,2703.07,3082.83,600.04,576.86,44.15,0000 0000 0000 0000 000000
2017-09-02 10:57:52,0.12,1.31,0.00,28.27,31.95,34.24,13.52,43.65,1001.48,2012.98,3007.06,2701.39,3080.83,600.34,577.24,44.20,0000 0000 0000 0000 000000
2017-09-02 11:02:53,0.11,1.31,0.00,28.28,31.95,34.23,13.40,43.70,1001.50,2012.98,3004.89,2699.79,3079.13,599.84,576.74,44.25,0000 0000 0000 0000 000000
2017-09-02 11:07:55,0.10,1.32,0.00,28.27,31.95,34.24,13.40,43.66,1001.51,2012.97,3002.78,2698.46,3077.58,600.10,577.01,44.30,0000 0000 0000 0000 000000
2017-09-02 11:12:56,0.07,1.32,0.00,28.29,31.95,34.24,13.42,43.63,1001.62,2012.96,3001.23,2697.38,3076.35,599.85,576.75,44.35,0000 0000 0000 0000 000000
2017-09-02 11:17:57,0.06,1.33,0.00,28.28,31.95,34.24,13.41,43.63,1001.83,2012.97,2999.91,2696.50,3075.24,600.09,577.16,44.41,0000 0000 0000 0000 000000
2017-09-02 11:22:58,0.03,1.33,0.00,28.27,31.95,34.23,13.48,43.63,1001.93,2012.93,2998.97,2696.00,3074.58,600.06,577.20,44.46,0000 0000 0000 0000 000000
2017-09-02 11:28:00,0.04,1.33,0.00,28.27,31.95,34.24,13.48,43.61,1001.96,2012.94,2998.10,2695.37,3074.00,600.03,577.27,44.51,0000 0000 0000 0000 000000
2017-09-02 11:33:01,0.01,1.33,0.00,28.27,31.95,34.24,13.41,43.60,1001.97,2012.69,2997.31,2694.93,3073.23,600.04,577.12,44.56,0000 0000 0000 0000 000000
2017-09-02 11:38:02,0.03,1.34,0.00,28.27,31.95,34.24,13.43,43.42,1001.97,2012.65,2996.93,2694.19,3072.98,600.16,577.44,44.61,0000 0000 0000 0000 000000
2017-09-02 11:43:03,0.04,1.34,0.00,28.26,31.95,34.24,13.40,43.43,1001.97,2012.84,2996.25,2694.01,3072.57,599.81,577.01,44.66,0000 0000 0000 0000 000000
2017-09-02 11:48:05,0.01,1.34,0.00,28.26,31.95,34.25,13.42,43.53,1001.97,2012.80,2995.99,2693.99,3072.02,600.11,577.32,44.71,0000 0000 0000 0000 000000
2017-09-02 11:53:06,0.02,1.34,0.00,28.25,31.95,34.25,13.40,43.52,1001.97,2012.73,2995.31,2693.39,3071.81,599.83,577.16,44.76,0000 0000 0000 0000 000000
2017-09-02 11:58:07,0.02,1.34,0.00,28.24,31.95,34.24,13.48,43.63,1001.97,2012.71,2994.90,2693.01,3071.11,599.93,577.11,44.81,0000 0000 0000 0000 000000
2017-09-02 12:03:08,0.01,1.34,0.00,28.23,31.95,34.24,13.43,43.67,1001.97,2012.66,2994.12,2692.93,3070.99,599.63,576.92,44.86,0000 0000 0000 0000 000000
2017-09-02 12:08:10,0.02,1.34,0.00,28.22,31.95,34.24,13.53,43.68,1001.97,2012.42,2993.92,2692.25,3070.61,600.20,577.44,44.91,0000 0000 0000 0000 000000
2017-09-02 12:13:11,0.01,1.34,0.00,28.22,31.95,34.24,13.47,43.64,1001.97,2012.30,2993.12,2692.00,3070.03,600.37,577.62,44.96,0000 0000 0000 0000 000000
2017-09-02 12:18:13,-0.00,1.34,0.00,28.22,31.95,34.24,13.39,43.60,1001.97,2012.21,2992.99,2691.99,3069.99,600.01,577.36,45.01,0000 0000 0000 0000 000000
2017-09-02 12:23:14,0.03,1.34,0.00,28.22,31.95,34.24,13.45,43.70,1001.97,2012.05,2992.54,2691.55,3069.57,600.34,577.61,45.06,0000 0000 0000 0000 000000
2017-09-02 12:28:15,0.02,1.35,0.00,28.23,31.95,34.24,13.43,43.56,1001.97,2012.08,2992.10,2691.21,3069.17,600.18,577.22,45.11,0000 0000 0000 0000 000000
2017-09-02 12:33:16,0.01,1.35,0.00,28.21,31.95,34.23,13.47,43.58,1001.97,2012.12,2992.00,2691.02,3069.03,599.96,577.24,45.16,0000 0000 0000 0000 000000
2017-09-02 12:38:17,0.01,1.35,0.00,28.20,31.95,34.23,13.37,43.66,1001.97,2012.14,2991.97,2691.00,3068.99,599.98,577.22,45.21,0000 0000 0000 0000 000000
2017-09-02 12:43:19,0.03,1.35,0.00,28.18,31.95,34.22,13.42,43.70,1001.96,2012.29,2991.57,2691.00,3068.96,599.93,577.27,45.27,0000 0000 0000 0000 000000
2017-09-02 12:48:20,0.00,1.35,0.00,28.18,31.94,34.21,13.41,43.62,1001.97,2012.19,2991.02,2690.92,3068.48,600.07,577.41,45.32,0000 0000 0000 0000 000000
2017-09-02 12:53:22,0.02,1.35,0.00,28.18,31.92,34.21,13.48,43.56,1001.97,2012.14,2990.94,2690.41,3068.05,599.79,577.14,45.37,0000 0000 0000 0000 000000